Year,Month,Day,Hour,Minute,Value (Times are PST for temperature in C)
2010,09,30,00,00,11.10
2010,09,30,00,01,11.10
2010,09,30,00,02,11.20
2010,09,30,00,03,11.20
2010,09,30,00,04,11.20
2010,09,30,00,05,11.20
2010,09,30,00,06,11.20
2010,09,30,00,07,11.20
2010,09,30,00,08,11.20
2010,09,30,00,09,11.20
2010,09,30,00,10,11.20
2010,09,30,00,11,11.20
2010,09,30,00,12,11.20
2010,09,30,00,13,11.20
2010,09,30,00,14,11.20
2010,09,30,00,15,11.20
2010,09,30,00,16,11.30
2010,09,30,00,17,11.30
2010,09,30,00,18,11.30
2010,09,30,00,19,11.30
2010,09,30,00,20,11.20
2010,09,30,00,21,11.20
2010,09,30,00,22,11.20
2010,09,30,00,23,11.20
2010,09,30,00,24,11.20
2010,09,30,00,25,11.20
2010,09,30,00,26,11.20
2010,09,30,00,27,11.20
2010,09,30,00,28,11.10
2010,09,30,00,29,11.10
2010,09,30,00,30,11.10
2010,09,30,00,31,11.10
2010,09,30,00,32,11.10
2010,09,30,00,33,11.00
2010,09,30,00,34,11.00
2010,09,30,00,35,11.00
2010,09,30,00,36,11.00
2010,09,30,00,37,11.00
2010,09,30,00,38,11.00
2010,09,30,00,39,11.00
2010,09,30,00,40,11.00
2010,09,30,00,41,11.00
2010,09,30,00,42,11.00
2010,09,30,00,43,11.00
2010,09,30,00,44,11.00
2010,09,30,00,45,11.00
2010,09,30,00,46,11.00
2010,09,30,00,47,11.00
2010,09,30,00,48,11.00
2010,09,30,00,49,11.00
2010,09,30,00,50,11.00
2010,09,30,00,51,11.00
2010,09,30,00,52,10.90
2010,09,30,00,53,10.90
2010,09,30,00,54,10.90
2010,09,30,00,55,10.90
2010,09,30,00,56,10.90
2010,09,30,00,57,10.90
2010,09,30,00,58,10.90
2010,09,30,00,59,10.90
2010,09,30,01,00,10.90
2010,09,30,01,01,10.90
2010,09,30,01,02,10.90
2010,09,30,01,03,10.90
2010,09,30,01,04,10.90
2010,09,30,01,05,10.90
2010,09,30,01,06,10.90
2010,09,30,01,07,10.90
2010,09,30,01,08,10.90
2010,09,30,01,09,10.90
2010,09,30,01,10,10.90
2010,09,30,01,11,10.90
2010,09,30,01,12,10.90
2010,09,30,01,13,10.90
2010,09,30,01,14,10.90
2010,09,30,01,15,10.90
2010,09,30,01,16,10.90
2010,09,30,01,17,10.90
2010,09,30,01,18,10.90
2010,09,30,01,19,10.90
2010,09,30,01,20,10.90
2010,09,30,01,21,10.80
2010,09,30,01,22,10.80
2010,09,30,01,23,10.80
2010,09,30,01,24,10.80
2010,09,30,01,25,10.80
2010,09,30,01,26,10.80
2010,09,30,01,27,10.70
2010,09,30,01,28,10.70
2010,09,30,01,29,10.70
2010,09,30,01,30,10.70
2010,09,30,01,31,10.70
2010,09,30,01,32,10.70
2010,09,30,01,33,10.70
2010,09,30,01,34,10.60
2010,09,30,01,35,10.60
2010,09,30,01,36,10.60
2010,09,30,01,37,10.60
2010,09,30,01,38,10.60
2010,09,30,01,39,10.60
2010,09,30,01,40,10.60
2010,09,30,01,41,10.60
2010,09,30,01,42,10.60
2010,09,30,01,43,10.60
2010,09,30,01,44,10.60
2010,09,30,01,45,10.60
2010,09,30,01,46,10.60
2010,09,30,01,47,10.60
2010,09,30,01,48,10.60
2010,09,30,01,49,10.60
2010,09,30,01,50,10.50
2010,09,30,01,51,10.50
2010,09,30,01,52,10.50
2010,09,30,01,53,10.50
2010,09,30,01,54,10.50
2010,09,30,01,55,10.50
2010,09,30,01,56,10.40
2010,09,30,01,57,10.40
2010,09,30,01,58,10.40
2010,09,30,01,59,10.50
2010,09,30,02,00,10.40
2010,09,30,02,01,10.50
2010,09,30,02,02,10.50
2010,09,30,02,03,10.50
2010,09,30,02,04,10.50
2010,09,30,02,05,10.50
2010,09,30,02,06,10.40
2010,09,30,02,07,10.50
2010,09,30,02,08,10.50
2010,09,30,02,09,10.50
2010,09,30,02,10,10.50
2010,09,30,02,11,10.50
2010,09,30,02,12,10.50
2010,09,30,02,13,10.60
2010,09,30,02,14,10.60
2010,09,30,02,15,10.50
2010,09,30,02,16,10.50
2010,09,30,02,17,10.50
2010,09,30,02,18,10.50
2010,09,30,02,19,10.50
2010,09,30,02,20,10.50
2010,09,30,02,21,10.50
2010,09,30,02,22,10.50
2010,09,30,02,23,10.50
2010,09,30,02,24,10.50
2010,09,30,02,25,10.50
2010,09,30,02,26,10.50
2010,09,30,02,27,10.50
2010,09,30,02,28,10.50
2010,09,30,02,29,10.50
2010,09,30,02,30,10.50
2010,09,30,02,31,10.40
2010,09,30,02,32,10.40
2010,09,30,02,33,10.40
2010,09,30,02,34,10.40
2010,09,30,02,35,10.40
2010,09,30,02,36,10.40
2010,09,30,02,37,10.40
2010,09,30,02,38,10.40
2010,09,30,02,39,10.40
2010,09,30,02,40,10.40
2010,09,30,02,41,10.40
2010,09,30,02,42,10.40
2010,09,30,02,43,10.40
2010,09,30,02,44,10.40
2010,09,30,02,45,10.40
2010,09,30,02,46,10.40
2010,09,30,02,47,10.40
2010,09,30,02,48,10.30
2010,09,30,02,49,10.30
2010,09,30,02,50,10.30
2010,09,30,02,51,10.30
2010,09,30,02,52,10.30
2010,09,30,02,53,10.20
2010,09,30,02,54,10.20
2010,09,30,02,55,10.20
2010,09,30,02,56,10.20
2010,09,30,02,57,10.20
2010,09,30,02,58,10.20
2010,09,30,02,59,10.20
2010,09,30,03,00,10.20
2010,09,30,03,01,10.20
2010,09,30,03,02,10.20
2010,09,30,03,03,10.20
2010,09,30,03,04,10.20
2010,09,30,03,05,10.20
2010,09,30,03,06,10.20
2010,09,30,03,07,10.20
2010,09,30,03,08,10.20
2010,09,30,03,09,10.20
2010,09,30,03,10,10.10
2010,09,30,03,11,10.10
2010,09,30,03,12,10.10
2010,09,30,03,13,10.10
2010,09,30,03,14,10.10
2010,09,30,03,15,10.00
2010,09,30,03,16,10.00
2010,09,30,03,17,10.00
2010,09,30,03,18,10.00
2010,09,30,03,19,9.90
2010,09,30,03,20,9.90
2010,09,30,03,21,9.90
2010,09,30,03,22,9.90
2010,09,30,03,23,9.90
2010,09,30,03,24,9.90
2010,09,30,03,25,9.90
2010,09,30,03,26,9.90
2010,09,30,03,27,9.90
2010,09,30,03,28,9.90
2010,09,30,03,29,9.90
2010,09,30,03,30,9.90
2010,09,30,03,31,9.90
2010,09,30,03,32,9.90
2010,09,30,03,33,9.90
2010,09,30,03,34,9.90
2010,09,30,03,35,9.90
2010,09,30,03,36,9.90
2010,09,30,03,37,9.90
2010,09,30,03,38,9.90
2010,09,30,03,39,9.90
2010,09,30,03,40,9.80
2010,09,30,03,41,9.80
2010,09,30,03,42,9.80
2010,09,30,03,43,9.80
2010,09,30,03,44,9.80
2010,09,30,03,45,9.80
2010,09,30,03,46,9.80
2010,09,30,03,47,9.80
2010,09,30,03,48,9.80
2010,09,30,03,49,9.80
2010,09,30,03,50,9.80
2010,09,30,03,51,9.80
2010,09,30,03,52,9.80
2010,09,30,03,53,9.80
2010,09,30,03,54,9.80
2010,09,30,03,55,9.80
2010,09,30,03,56,9.80
2010,09,30,03,57,9.80
2010,09,30,03,58,9.80
2010,09,30,03,59,9.80
2010,09,30,04,00,9.80
2010,09,30,04,01,9.80
2010,09,30,04,02,9.80
2010,09,30,04,03,9.80
2010,09,30,04,04,9.80
2010,09,30,04,05,9.80
2010,09,30,04,06,9.80
2010,09,30,04,07,9.80
2010,09,30,04,08,9.80
2010,09,30,04,09,9.80
2010,09,30,04,10,9.80
2010,09,30,04,11,9.80
2010,09,30,04,12,9.80
2010,09,30,04,13,9.80
2010,09,30,04,14,9.80
2010,09,30,04,15,9.80
2010,09,30,04,16,9.80
2010,09,30,04,17,9.80
2010,09,30,04,18,9.80
2010,09,30,04,19,9.80
2010,09,30,04,20,9.80
2010,09,30,04,21,9.80
2010,09,30,04,22,9.70
2010,09,30,04,23,9.70
2010,09,30,04,24,9.70
2010,09,30,04,25,9.70
2010,09,30,04,26,9.70
2010,09,30,04,27,9.70
2010,09,30,04,28,9.70
2010,09,30,04,29,9.70
2010,09,30,04,30,9.70
2010,09,30,04,31,9.60
2010,09,30,04,32,9.60
2010,09,30,04,33,9.60
2010,09,30,04,34,9.60
2010,09,30,04,35,9.60
2010,09,30,04,36,9.60
2010,09,30,04,37,9.60
2010,09,30,04,38,9.60
2010,09,30,04,39,9.60
2010,09,30,04,40,9.60
2010,09,30,04,41,9.60
2010,09,30,04,42,9.60
2010,09,30,04,43,9.60
2010,09,30,04,44,9.60
2010,09,30,04,45,9.60
2010,09,30,04,46,9.60
2010,09,30,04,47,9.60
2010,09,30,04,48,9.60
2010,09,30,04,49,9.60
2010,09,30,04,50,9.60
2010,09,30,04,51,9.60
2010,09,30,04,52,9.60
2010,09,30,04,53,9.60
2010,09,30,04,54,9.60
2010,09,30,04,55,9.60
2010,09,30,04,56,9.50
2010,09,30,04,57,9.50
2010,09,30,04,58,9.50
2010,09,30,04,59,9.50
2010,09,30,05,00,9.50
2010,09,30,05,01,9.50
2010,09,30,05,02,9.50
2010,09,30,05,03,9.50
2010,09,30,05,04,9.50
2010,09,30,05,05,9.50
2010,09,30,05,06,9.50
2010,09,30,05,07,9.50
2010,09,30,05,08,9.50
2010,09,30,05,09,9.50
2010,09,30,05,10,9.50
2010,09,30,05,11,9.50
2010,09,30,05,12,9.60
2010,09,30,05,13,9.60
2010,09,30,05,14,9.60
2010,09,30,05,15,9.50
2010,09,30,05,16,9.60
2010,09,30,05,17,9.60
2010,09,30,05,18,9.60
2010,09,30,05,19,9.50
2010,09,30,05,20,9.50
2010,09,30,05,21,9.50
2010,09,30,05,22,9.50
2010,09,30,05,23,9.50
2010,09,30,05,24,9.50
2010,09,30,05,25,9.50
2010,09,30,05,26,9.50
2010,09,30,05,27,9.50
2010,09,30,05,28,9.50
2010,09,30,05,29,9.50
2010,09,30,05,30,9.50
2010,09,30,05,31,9.50
2010,09,30,05,32,9.50
2010,09,30,05,33,9.50
2010,09,30,05,34,9.50
2010,09,30,05,35,9.40
2010,09,30,05,36,9.40
2010,09,30,05,37,9.40
2010,09,30,05,38,9.40
2010,09,30,05,39,9.40
2010,09,30,05,40,9.40
2010,09,30,05,41,9.40
2010,09,30,05,42,9.40
2010,09,30,05,43,9.30
2010,09,30,05,44,9.30
2010,09,30,05,45,9.30
2010,09,30,05,46,9.30
2010,09,30,05,47,9.30
2010,09,30,05,48,9.30
2010,09,30,05,49,9.30
2010,09,30,05,50,9.20
2010,09,30,05,51,9.20
2010,09,30,05,52,9.20
2010,09,30,05,53,9.20
2010,09,30,05,54,9.20
2010,09,30,05,55,9.20
2010,09,30,05,56,9.20
2010,09,30,05,57,9.20
2010,09,30,05,58,9.20
2010,09,30,05,59,9.30
2010,09,30,06,00,9.30
2010,09,30,06,01,9.30
2010,09,30,06,02,9.30
2010,09,30,06,03,9.30
2010,09,30,06,04,9.30
2010,09,30,06,05,9.30
2010,09,30,06,06,9.30
2010,09,30,06,07,9.30
2010,09,30,06,08,9.30
2010,09,30,06,09,9.30
2010,09,30,06,10,9.30
2010,09,30,06,11,9.30
2010,09,30,06,12,9.30
2010,09,30,06,13,9.30
2010,09,30,06,14,9.30
2010,09,30,06,15,9.30
2010,09,30,06,16,9.30
2010,09,30,06,17,9.40
2010,09,30,06,18,9.40
2010,09,30,06,19,9.40
2010,09,30,06,20,9.40
2010,09,30,06,21,9.40
2010,09,30,06,22,9.40
2010,09,30,06,23,9.40
2010,09,30,06,24,9.40
2010,09,30,06,25,9.40
2010,09,30,06,26,9.40
2010,09,30,06,27,9.40
2010,09,30,06,28,9.40
2010,09,30,06,29,9.40
2010,09,30,06,30,9.40
2010,09,30,06,31,9.40
2010,09,30,06,32,9.40
2010,09,30,06,33,9.40
2010,09,30,06,34,9.40
2010,09,30,06,35,9.40
2010,09,30,06,36,9.40
2010,09,30,06,37,9.40
2010,09,30,06,38,9.40
2010,09,30,06,39,9.40
2010,09,30,06,40,9.40
2010,09,30,06,41,9.30
2010,09,30,06,42,9.30
2010,09,30,06,43,9.30
2010,09,30,06,44,9.30
2010,09,30,06,45,9.30
2010,09,30,06,46,9.30
2010,09,30,06,47,9.30
2010,09,30,06,48,9.30
2010,09,30,06,49,9.30
2010,09,30,06,50,9.30
2010,09,30,06,51,9.30
2010,09,30,06,52,9.30
2010,09,30,06,53,9.30
2010,09,30,06,54,9.30
2010,09,30,06,55,9.30
2010,09,30,06,56,9.20
2010,09,30,06,57,9.20
2010,09,30,06,58,9.20
2010,09,30,06,59,9.20
2010,09,30,07,00,9.20
2010,09,30,07,01,9.20
2010,09,30,07,02,9.20
2010,09,30,07,03,9.20
2010,09,30,07,04,9.20
2010,09,30,07,05,9.20
2010,09,30,07,06,9.20
2010,09,30,07,07,9.10
2010,09,30,07,08,9.10
2010,09,30,07,09,9.10
2010,09,30,07,10,9.10
2010,09,30,07,11,9.10
2010,09,30,07,12,9.10
2010,09,30,07,13,9.10
2010,09,30,07,14,9.10
2010,09,30,07,15,9.10
2010,09,30,07,16,9.10
2010,09,30,07,17,9.10
2010,09,30,07,18,9.10
2010,09,30,07,19,9.10
2010,09,30,07,20,9.10
2010,09,30,07,21,9.10
2010,09,30,07,22,9.10
2010,09,30,07,23,9.10
2010,09,30,07,24,9.10
2010,09,30,07,25,9.10
2010,09,30,07,26,9.10
2010,09,30,07,27,9.10
2010,09,30,07,28,9.10
2010,09,30,07,29,9.10
2010,09,30,07,30,9.10
2010,09,30,07,31,9.10
2010,09,30,07,32,9.10
2010,09,30,07,33,9.10
2010,09,30,07,34,9.10
2010,09,30,07,35,9.10
2010,09,30,07,36,9.10
2010,09,30,07,37,9.10
2010,09,30,07,38,9.10
2010,09,30,07,39,9.10
2010,09,30,07,40,9.10
2010,09,30,07,41,9.10
2010,09,30,07,42,9.10
2010,09,30,07,43,9.00
2010,09,30,07,44,9.00
2010,09,30,07,45,9.10
2010,09,30,07,46,9.10
2010,09,30,07,47,9.00
2010,09,30,07,48,9.10
2010,09,30,07,49,9.10
2010,09,30,07,50,9.10
2010,09,30,07,51,9.10
2010,09,30,07,52,9.10
2010,09,30,07,53,9.10
2010,09,30,07,54,9.10
2010,09,30,07,55,9.10
2010,09,30,07,56,9.10
2010,09,30,07,57,9.10
2010,09,30,07,58,9.10
2010,09,30,07,59,9.10
2010,09,30,08,00,9.10
2010,09,30,08,01,9.10
2010,09,30,08,02,9.10
2010,09,30,08,03,9.10
2010,09,30,08,04,9.10
2010,09,30,08,05,9.10
2010,09,30,08,06,9.20
2010,09,30,08,07,9.20
2010,09,30,08,08,9.20
2010,09,30,08,09,9.20
2010,09,30,08,10,9.20
2010,09,30,08,11,9.20
2010,09,30,08,12,9.20
2010,09,30,08,13,9.20
2010,09,30,08,14,9.20
2010,09,30,08,15,9.20
2010,09,30,08,16,9.20
2010,09,30,08,17,9.20
2010,09,30,08,18,9.30
2010,09,30,08,19,9.30
2010,09,30,08,20,9.30
2010,09,30,08,21,9.30
2010,09,30,08,22,9.30
2010,09,30,08,23,9.30
2010,09,30,08,24,9.30
2010,09,30,08,25,9.30
2010,09,30,08,26,9.30
2010,09,30,08,27,9.40
2010,09,30,08,28,9.40
2010,09,30,08,29,9.40
2010,09,30,08,30,9.40
2010,09,30,08,31,9.50
2010,09,30,08,32,9.50
2010,09,30,08,33,9.50
2010,09,30,08,34,9.60
2010,09,30,08,35,9.60
2010,09,30,08,36,9.60
2010,09,30,08,37,9.60
2010,09,30,08,38,9.60
2010,09,30,08,39,9.60
2010,09,30,08,40,9.70
2010,09,30,08,41,9.70
2010,09,30,08,42,9.70
2010,09,30,08,43,9.70
2010,09,30,08,44,9.70
2010,09,30,08,45,9.80
2010,09,30,08,46,9.80
2010,09,30,08,47,9.80
2010,09,30,08,48,9.80
2010,09,30,08,49,9.80
2010,09,30,08,50,9.90
2010,09,30,08,51,9.90
2010,09,30,08,52,9.90
2010,09,30,08,53,10.00
2010,09,30,08,54,10.00
2010,09,30,08,55,10.00
2010,09,30,08,56,10.10
2010,09,30,08,57,10.10
2010,09,30,08,58,10.10
2010,09,30,08,59,10.10
2010,09,30,09,00,10.20
2010,09,30,09,01,10.20
2010,09,30,09,02,10.20
2010,09,30,09,03,10.20
2010,09,30,09,04,10.30
2010,09,30,09,05,10.30
2010,09,30,09,06,10.30
2010,09,30,09,07,10.40
2010,09,30,09,08,10.40
2010,09,30,09,09,10.40
2010,09,30,09,10,10.40
2010,09,30,09,11,10.50
2010,09,30,09,12,10.50
2010,09,30,09,13,10.60
2010,09,30,09,14,10.60
2010,09,30,09,15,10.60
2010,09,30,09,16,10.70
2010,09,30,09,17,10.70
2010,09,30,09,18,10.80
2010,09,30,09,19,10.80
2010,09,30,09,20,10.80
2010,09,30,09,21,10.90
2010,09,30,09,22,10.90
2010,09,30,09,23,11.00
2010,09,30,09,24,11.10
2010,09,30,09,25,11.10
2010,09,30,09,26,11.20
2010,09,30,09,27,11.20
2010,09,30,09,28,11.30
2010,09,30,09,29,11.40
2010,09,30,09,30,11.40
2010,09,30,09,31,11.50
2010,09,30,09,32,11.50
2010,09,30,09,33,11.60
2010,09,30,09,34,11.60
2010,09,30,09,35,11.70
2010,09,30,09,36,11.70
2010,09,30,09,37,11.80
2010,09,30,09,38,11.80
2010,09,30,09,39,11.90
2010,09,30,09,40,11.90
2010,09,30,09,41,11.90
2010,09,30,09,42,12.00
2010,09,30,09,43,12.00
2010,09,30,09,44,12.10
2010,09,30,09,45,12.20
2010,09,30,09,46,12.20
2010,09,30,09,47,12.20
2010,09,30,09,48,12.30
2010,09,30,09,49,12.30
2010,09,30,09,50,12.30
2010,09,30,09,51,12.40
2010,09,30,09,52,12.40
2010,09,30,09,53,12.50
2010,09,30,09,54,12.50
2010,09,30,09,55,12.50
2010,09,30,09,56,12.60
2010,09,30,09,57,12.60
2010,09,30,09,58,12.60
2010,09,30,09,59,12.60
2010,09,30,10,00,12.70
2010,09,30,10,01,12.70
2010,09,30,10,02,12.70
2010,09,30,10,03,12.80
2010,09,30,10,04,12.80
2010,09,30,10,05,12.80
2010,09,30,10,06,12.90
2010,09,30,10,07,12.90
2010,09,30,10,08,13.00
2010,09,30,10,09,13.00
2010,09,30,10,10,13.10
2010,09,30,10,11,13.10
2010,09,30,10,12,13.20
2010,09,30,10,13,13.20
2010,09,30,10,14,13.30
2010,09,30,10,15,13.30
2010,09,30,10,16,13.40
2010,09,30,10,17,13.40
2010,09,30,10,18,13.50
2010,09,30,10,19,13.50
2010,09,30,10,20,13.60
2010,09,30,10,21,13.60
2010,09,30,10,22,13.60
2010,09,30,10,23,13.70
2010,09,30,10,24,13.70
2010,09,30,10,25,13.80
2010,09,30,10,26,13.80
2010,09,30,10,27,13.80
2010,09,30,10,28,13.90
2010,09,30,10,29,13.90
2010,09,30,10,30,14.00
2010,09,30,10,31,14.00
2010,09,30,10,32,14.10
2010,09,30,10,33,14.10
2010,09,30,10,34,14.10
2010,09,30,10,35,14.20
2010,09,30,10,36,14.20
2010,09,30,10,37,14.30
2010,09,30,10,38,14.30
2010,09,30,10,39,14.30
2010,09,30,10,40,14.40
2010,09,30,10,41,14.40
2010,09,30,10,42,14.40
2010,09,30,10,43,14.50
2010,09,30,10,44,14.50
2010,09,30,10,45,14.60
2010,09,30,10,46,14.60
2010,09,30,10,47,14.70
2010,09,30,10,48,14.70
2010,09,30,10,49,14.70
2010,09,30,10,50,14.80
2010,09,30,10,51,14.80
2010,09,30,10,52,14.90
2010,09,30,10,53,14.90
2010,09,30,10,54,14.90
2010,09,30,10,55,15.00
2010,09,30,10,56,15.00
2010,09,30,10,57,15.10
2010,09,30,10,58,15.10
2010,09,30,10,59,15.10
2010,09,30,11,00,15.10
2010,09,30,11,01,15.20
2010,09,30,11,02,15.20
2010,09,30,11,03,15.20
2010,09,30,11,04,15.20
2010,09,30,11,05,15.30
2010,09,30,11,06,15.30
2010,09,30,11,07,15.30
2010,09,30,11,08,15.30
2010,09,30,11,09,15.40
2010,09,30,11,10,15.40
2010,09,30,11,11,15.40
2010,09,30,11,12,15.40
2010,09,30,11,13,15.50
2010,09,30,11,14,15.50
2010,09,30,11,15,15.50
2010,09,30,11,16,15.50
2010,09,30,11,17,15.60
2010,09,30,11,18,15.60
2010,09,30,11,19,15.60
2010,09,30,11,20,15.60
2010,09,30,11,21,15.70
2010,09,30,11,22,15.70
2010,09,30,11,23,15.80
2010,09,30,11,24,15.80
2010,09,30,11,25,15.80
2010,09,30,11,26,15.80
2010,09,30,11,27,15.90
2010,09,30,11,28,15.90
2010,09,30,11,29,15.90
2010,09,30,11,30,16.00
2010,09,30,11,31,16.00
2010,09,30,11,32,16.10
2010,09,30,11,33,16.10
2010,09,30,11,34,16.10
2010,09,30,11,35,16.20
2010,09,30,11,36,16.20
2010,09,30,11,37,16.20
2010,09,30,11,38,16.30
2010,09,30,11,39,16.20
2010,09,30,11,40,16.20
2010,09,30,11,41,16.20
2010,09,30,11,42,16.20
2010,09,30,11,43,16.20
2010,09,30,11,44,16.20
2010,09,30,11,45,16.20
2010,09,30,11,46,16.20
2010,09,30,11,47,16.20
2010,09,30,11,48,16.20
2010,09,30,11,49,16.20
2010,09,30,11,50,16.20
2010,09,30,11,51,16.20
2010,09,30,11,52,16.20
2010,09,30,11,53,16.20
2010,09,30,11,54,16.30
2010,09,30,11,55,16.30
2010,09,30,11,56,16.30
2010,09,30,11,57,16.30
2010,09,30,11,58,16.30
2010,09,30,11,59,16.40
2010,09,30,12,00,16.40
2010,09,30,12,01,16.40
2010,09,30,12,02,16.50
2010,09,30,12,03,16.50
2010,09,30,12,04,16.60
2010,09,30,12,05,16.60
2010,09,30,12,06,16.70
2010,09,30,12,07,16.70
2010,09,30,12,08,16.70
2010,09,30,12,09,16.80
2010,09,30,12,10,16.80
2010,09,30,12,11,16.80
2010,09,30,12,12,16.90
2010,09,30,12,13,17.00
2010,09,30,12,14,17.00
2010,09,30,12,15,17.10
2010,09,30,12,16,17.10
2010,09,30,12,17,17.20
2010,09,30,12,18,17.20
2010,09,30,12,19,17.20
2010,09,30,12,20,17.30
2010,09,30,12,21,17.30
2010,09,30,12,22,17.40
2010,09,30,12,23,17.40
2010,09,30,12,24,17.50
2010,09,30,12,25,17.60
2010,09,30,12,26,17.70
2010,09,30,12,27,17.70
2010,09,30,12,28,17.80
2010,09,30,12,29,17.80
2010,09,30,12,30,17.80
2010,09,30,12,31,17.70
2010,09,30,12,32,17.70
2010,09,30,12,33,17.70
2010,09,30,12,34,17.80
2010,09,30,12,35,17.80
2010,09,30,12,36,17.80
2010,09,30,12,37,17.90
2010,09,30,12,38,17.90
2010,09,30,12,39,18.00
2010,09,30,12,40,18.10
2010,09,30,12,41,18.20
2010,09,30,12,42,18.30
2010,09,30,12,43,18.40
2010,09,30,12,44,18.50
2010,09,30,12,45,18.60
2010,09,30,12,46,18.60
2010,09,30,12,47,18.70
2010,09,30,12,48,18.80
2010,09,30,12,49,18.80
2010,09,30,12,50,18.80
2010,09,30,12,51,18.80
2010,09,30,12,52,18.80
2010,09,30,12,53,18.80
2010,09,30,12,54,18.80
2010,09,30,12,55,18.80
2010,09,30,12,56,18.90
2010,09,30,12,57,18.90
2010,09,30,12,58,19.00
2010,09,30,12,59,19.00
2010,09,30,13,00,19.10
2010,09,30,13,01,19.10
2010,09,30,13,02,19.10
2010,09,30,13,03,19.20
2010,09,30,13,04,19.20
2010,09,30,13,05,19.30
2010,09,30,13,06,19.30
2010,09,30,13,07,19.30
2010,09,30,13,08,19.30
2010,09,30,13,09,19.20
2010,09,30,13,10,19.20
2010,09,30,13,11,19.20
2010,09,30,13,12,19.20
2010,09,30,13,13,19.20
2010,09,30,13,14,19.20
2010,09,30,13,15,19.20
2010,09,30,13,16,19.20
2010,09,30,13,17,19.20
2010,09,30,13,18,19.20
2010,09,30,13,19,19.20
2010,09,30,13,20,19.20
2010,09,30,13,21,19.30
2010,09,30,13,22,19.30
2010,09,30,13,23,19.30
2010,09,30,13,24,19.30
2010,09,30,13,25,19.40
2010,09,30,13,26,19.40
2010,09,30,13,27,19.50
2010,09,30,13,28,19.50
2010,09,30,13,29,19.60
2010,09,30,13,30,19.60
2010,09,30,13,31,19.70
2010,09,30,13,32,19.80
2010,09,30,13,33,19.80
2010,09,30,13,34,19.90
2010,09,30,13,35,19.90
2010,09,30,13,36,20.00
2010,09,30,13,37,20.10
2010,09,30,13,38,20.10
2010,09,30,13,39,20.10
2010,09,30,13,40,20.10
2010,09,30,13,41,20.10
2010,09,30,13,42,20.10
2010,09,30,13,43,20.10
2010,09,30,13,44,20.20
2010,09,30,13,45,20.10
2010,09,30,13,46,20.10
2010,09,30,13,47,20.00
2010,09,30,13,48,20.00
2010,09,30,13,49,19.90
2010,09,30,13,50,19.90
2010,09,30,13,51,19.90
2010,09,30,13,52,20.00
2010,09,30,13,53,20.00
2010,09,30,13,54,20.10
2010,09,30,13,55,20.10
2010,09,30,13,56,20.10
2010,09,30,13,57,20.10
2010,09,30,13,58,20.10
2010,09,30,13,59,20.10
2010,09,30,14,00,20.20
2010,09,30,14,01,20.20
2010,09,30,14,02,20.20
2010,09,30,14,03,20.20
2010,09,30,14,04,20.20
2010,09,30,14,05,20.20
2010,09,30,14,06,20.20
2010,09,30,14,07,20.20
2010,09,30,14,08,20.20
2010,09,30,14,09,20.20
2010,09,30,14,10,20.20
2010,09,30,14,11,20.20
2010,09,30,14,12,20.30
2010,09,30,14,13,20.30
2010,09,30,14,14,20.40
2010,09,30,14,15,20.40
2010,09,30,14,16,20.40
2010,09,30,14,17,20.50
2010,09,30,14,18,20.60
2010,09,30,14,19,20.60
2010,09,30,14,20,20.60
2010,09,30,14,21,20.60
2010,09,30,14,22,20.60
2010,09,30,14,23,20.60
2010,09,30,14,24,20.70
2010,09,30,14,25,20.70
2010,09,30,14,26,20.70
2010,09,30,14,27,20.70
2010,09,30,14,28,20.70
2010,09,30,14,29,20.70
2010,09,30,14,30,20.70
2010,09,30,14,31,20.70
2010,09,30,14,32,20.70
2010,09,30,14,33,20.80
2010,09,30,14,34,20.80
2010,09,30,14,35,20.90
2010,09,30,14,36,20.90
2010,09,30,14,37,20.90
2010,09,30,14,38,20.90
2010,09,30,14,39,20.90
2010,09,30,14,40,20.90
2010,09,30,14,41,20.90
2010,09,30,14,42,20.90
2010,09,30,14,43,21.00
2010,09,30,14,44,21.00
2010,09,30,14,45,21.00
2010,09,30,14,46,21.00
2010,09,30,14,47,21.00
2010,09,30,14,48,21.00
2010,09,30,14,49,21.00
2010,09,30,14,50,21.00
2010,09,30,14,51,21.00
2010,09,30,14,52,21.10
2010,09,30,14,53,21.10
2010,09,30,14,54,21.10
2010,09,30,14,55,21.20
2010,09,30,14,56,21.20
2010,09,30,14,57,21.20
2010,09,30,14,58,21.20
2010,09,30,14,59,21.20
2010,09,30,15,00,21.20
2010,09,30,15,01,21.30
2010,09,30,15,02,21.30
2010,09,30,15,03,21.30
2010,09,30,15,04,21.30
2010,09,30,15,05,21.30
2010,09,30,15,06,21.30
2010,09,30,15,07,21.30
2010,09,30,15,08,21.30
2010,09,30,15,09,21.30
2010,09,30,15,10,21.30
2010,09,30,15,11,21.40
2010,09,30,15,12,21.40
2010,09,30,15,13,21.40
2010,09,30,15,14,21.40
2010,09,30,15,15,21.40
2010,09,30,15,16,21.50
2010,09,30,15,17,21.50
2010,09,30,15,18,21.40
2010,09,30,15,19,21.40
2010,09,30,15,20,21.40
2010,09,30,15,21,21.40
2010,09,30,15,22,21.40
2010,09,30,15,23,21.40
2010,09,30,15,24,21.50
2010,09,30,15,25,21.50
2010,09,30,15,26,21.60
2010,09,30,15,27,21.60
2010,09,30,15,28,21.70
2010,09,30,15,29,21.70
2010,09,30,15,30,21.70
2010,09,30,15,31,21.70
2010,09,30,15,32,21.70
2010,09,30,15,33,21.70
2010,09,30,15,34,21.70
2010,09,30,15,35,21.70
2010,09,30,15,36,21.70
2010,09,30,15,37,21.70
2010,09,30,15,38,21.70
2010,09,30,15,39,21.70
2010,09,30,15,40,21.80
2010,09,30,15,41,21.80
2010,09,30,15,42,21.80
2010,09,30,15,43,21.80
2010,09,30,15,44,21.80
2010,09,30,15,45,21.80
2010,09,30,15,46,21.80
2010,09,30,15,47,21.80
2010,09,30,15,48,21.80
2010,09,30,15,49,21.80
2010,09,30,15,50,21.80
2010,09,30,15,51,21.80
2010,09,30,15,52,21.80
2010,09,30,15,53,21.80
2010,09,30,15,54,21.80
2010,09,30,15,55,21.80
2010,09,30,15,56,21.80
2010,09,30,15,57,21.80
2010,09,30,15,58,21.80
2010,09,30,15,59,21.80
2010,09,30,16,00,21.80
2010,09,30,16,01,21.80
2010,09,30,16,02,21.80
2010,09,30,16,03,21.90
2010,09,30,16,04,21.90
2010,09,30,16,05,21.90
2010,09,30,16,06,21.90
2010,09,30,16,07,21.90
2010,09,30,16,08,21.90
2010,09,30,16,09,21.90
2010,09,30,16,10,21.90
2010,09,30,16,11,22.00
2010,09,30,16,12,22.00
2010,09,30,16,13,22.10
2010,09,30,16,14,22.10
2010,09,30,16,15,22.10
2010,09,30,16,16,22.20
2010,09,30,16,17,22.10
2010,09,30,16,18,22.10
2010,09,30,16,19,22.10
2010,09,30,16,20,22.10
2010,09,30,16,21,22.10
2010,09,30,16,22,22.10
2010,09,30,16,23,22.20
2010,09,30,16,24,22.20
2010,09,30,16,25,22.20
2010,09,30,16,26,22.20
2010,09,30,16,27,22.20
2010,09,30,16,28,22.20
2010,09,30,16,29,22.20
2010,09,30,16,30,22.20
2010,09,30,16,31,22.30
2010,09,30,16,32,22.30
2010,09,30,16,33,22.30
2010,09,30,16,34,22.30
2010,09,30,16,35,22.40
2010,09,30,16,36,22.40
2010,09,30,16,37,22.40
2010,09,30,16,38,22.40
2010,09,30,16,39,22.40
2010,09,30,16,40,22.30
2010,09,30,16,41,22.30
2010,09,30,16,42,22.30
2010,09,30,16,43,22.30
2010,09,30,16,44,22.30
2010,09,30,16,45,22.40
2010,09,30,16,46,22.40
2010,09,30,16,47,22.40
2010,09,30,16,48,22.40
2010,09,30,16,49,22.40
2010,09,30,16,50,22.50
2010,09,30,16,51,22.50
2010,09,30,16,52,22.50
2010,09,30,16,53,22.50
2010,09,30,16,54,22.50
2010,09,30,16,55,22.50
2010,09,30,16,56,22.50
2010,09,30,16,57,22.50
2010,09,30,16,58,22.50
2010,09,30,16,59,22.60
2010,09,30,17,00,22.60
2010,09,30,17,01,22.60
2010,09,30,17,02,22.70
2010,09,30,17,03,22.70
2010,09,30,17,04,22.70
2010,09,30,17,05,22.70
2010,09,30,17,06,22.70
2010,09,30,17,07,22.70
2010,09,30,17,08,22.70
2010,09,30,17,09,22.70
2010,09,30,17,10,22.60
2010,09,30,17,11,22.60
2010,09,30,17,12,22.60
2010,09,30,17,13,22.60
2010,09,30,17,14,22.60
2010,09,30,17,15,22.60
2010,09,30,17,16,22.60
2010,09,30,17,17,22.50
2010,09,30,17,18,22.50
2010,09,30,17,19,22.50
2010,09,30,17,20,22.40
2010,09,30,17,21,22.40
2010,09,30,17,22,22.40
2010,09,30,17,23,22.50
2010,09,30,17,24,22.50
2010,09,30,17,25,22.60
2010,09,30,17,26,22.60
2010,09,30,17,27,22.60
2010,09,30,17,28,22.60
2010,09,30,17,29,22.60
2010,09,30,17,30,22.70
2010,09,30,17,31,22.70
2010,09,30,17,32,22.70
2010,09,30,17,33,22.70